Time,TemperatureF,DewpointF,PressureIn,WindDirection,WindDirectionDegrees,WindSpeedMPH,WindSpeedGustMPH,Humidity,HourlyPrecipIn,Conditions,Clouds,dailyrainin,SolarRadiationWatts/m^2,SoftwareType,DateUTC
2013-09-14 01:00:00,44.0,42.0,-100.00,WSW,247,0.0,-999.0,93,-99.99,,,-99.99,0.000000,,2013-09-14 05:00:00,
2013-09-14 01:43:00,44.0,42.0,-100.00,WSW,247,0.0,-999.0,93,-99.99,,,-99.99,0.000000,,2013-09-14 05:43:00,
2013-09-14 01:53:00,44.0,42.0,-100.00,WSW,247,0.0,-999.0,93,-99.99,,,-99.99,0.000000,,2013-09-14 05:53:00,
2013-09-14 02:00:00,43.0,41.0,-100.00,WSW,247,0.0,-999.0,94,-99.99,,,-99.99,0.000000,,2013-09-14 06:00:00,
2013-09-14 02:42:00,43.0,41.0,-100.00,WSW,247,0.0,-999.0,94,-99.99,,,-99.99,0.000000,,2013-09-14 06:42:00,
2013-09-14 02:52:00,43.0,41.0,-100.00,WSW,247,0.0,-999.0,94,-99.99,,,-99.99,0.000000,,2013-09-14 06:52:00,
2013-09-14 03:00:00,41.0,40.0,-100.00,South,180,0.0,-999.0,95,-99.99,,,-99.99,0.000000,,2013-09-14 07:00:00,
2013-09-14 03:42:00,41.0,40.0,-100.00,South,180,0.0,-999.0,95,-99.99,,,-99.99,0.000000,,2013-09-14 07:42:00,
2013-09-14 03:52:00,41.0,40.0,-100.00,South,180,0.0,-999.0,95,-99.99,,,-99.99,0.000000,,2013-09-14 07:52:00,
2013-09-14 04:00:00,40.0,39.0,-100.00,ESE,112,0.0,-999.0,95,-99.99,,,-99.99,0.000000,,2013-09-14 08:00:00,
2013-09-14 04:42:00,40.0,39.0,-100.00,ESE,112,0.0,-999.0,95,-99.99,,,-99.99,0.000000,,2013-09-14 08:42:00,
2013-09-14 04:52:00,40.0,39.0,-100.00,ESE,112,0.0,-999.0,95,-99.99,,,-99.99,0.000000,,2013-09-14 08:52:00,
2013-09-14 05:00:00,39.0,38.0,-100.00,ESE,112,0.0,-999.0,96,-99.99,,,-99.99,0.000000,,2013-09-14 09:00:00,
2013-09-14 05:43:00,39.0,38.0,-100.00,ESE,112,0.0,-999.0,96,-99.99,,,-99.99,0.000000,,2013-09-14 09:43:00,
2013-09-14 05:54:00,39.0,38.0,-100.00,ESE,112,0.0,-999.0,96,-99.99,,,-99.99,0.000000,,2013-09-14 09:54:00,
2013-09-14 07:00:00,39.0,39.0,-100.00,ESE,112,1.0,-999.0,97,-99.99,,,-99.99,0.000000,,2013-09-14 11:00:00,
2013-09-14 07:42:00,39.0,39.0,-100.00,ESE,112,1.0,-999.0,97,-99.99,,,-99.99,0.000000,,2013-09-14 11:42:00,
2013-09-14 07:52:00,39.0,39.0,-100.00,ESE,112,1.0,-999.0,97,-99.99,,,-99.99,0.000000,,2013-09-14 11:52:00,
2013-09-14 09:00:00,44.0,43.0,-100.00,SSE,157,1.0,-999.0,97,-99.99,,,-99.99,167.039993,,2013-09-14 13:00:00,
2013-09-14 09:42:00,44.0,43.0,-100.00,SSE,157,1.0,-999.0,97,-99.99,,,-99.99,167.039993,,2013-09-14 13:42:00,
2013-09-14 09:52:00,44.0,43.0,-100.00,SSE,157,1.0,-999.0,97,-99.99,,,-99.99,167.039993,,2013-09-14 13:52:00,
2013-09-14 10:00:00,50.0,45.0,-100.00,South,180,3.0,-999.0,81,-99.99,,,-99.99,335.239990,,2013-09-14 14:00:00,
2013-09-14 10:43:00,50.0,45.0,-100.00,South,180,3.0,-999.0,81,-99.99,,,-99.99,335.239990,,2013-09-14 14:43:00,
2013-09-14 10:52:00,50.0,45.0,-100.00,South,180,3.0,-999.0,81,-99.99,,,-99.99,335.239990,,2013-09-14 14:52:00,
2013-09-14 11:00:00,55.0,43.0,-100.00,SW,225,4.0,-999.0,62,-99.99,,,-99.99,491.839996,,2013-09-14 15:00:00,
2013-09-14 11:44:00,55.0,43.0,-100.00,SW,225,4.0,-999.0,62,-99.99,,,-99.99,491.839996,,2013-09-14 15:44:00,
2013-09-14 11:53:00,55.0,43.0,-100.00,SW,225,4.0,-999.0,62,-99.99,,,-99.99,491.839996,,2013-09-14 15:53:00,
2013-09-14 12:00:00,59.0,40.0,-100.00,WSW,247,4.0,-999.0,49,-99.99,,,-99.99,620.599976,,2013-09-14 16:00:00,
2013-09-14 12:44:00,59.0,40.0,-100.00,WSW,247,4.0,-999.0,49,-99.99,,,-99.99,620.599976,,2013-09-14 16:44:00,
2013-09-14 12:54:00,59.0,40.0,-100.00,WSW,247,4.0,-999.0,49,-99.99,,,-99.99,620.599976,,2013-09-14 16:54:00,
2013-09-14 13:00:00,63.0,39.0,-100.00,SW,225,4.0,-999.0,41,-99.99,,,-99.99,705.280029,,2013-09-14 17:00:00,
2013-09-14 13:43:00,63.0,39.0,-100.00,SW,225,4.0,-999.0,41,-99.99,,,-99.99,705.280029,,2013-09-14 17:43:00,
2013-09-14 13:54:00,63.0,39.0,-100.00,SW,225,4.0,-999.0,41,-99.99,,,-99.99,705.280029,,2013-09-14 17:54:00,
2013-09-14 14:00:00,65.0,37.0,-100.00,SW,225,4.0,-999.0,35,-99.99,,,-99.99,736.599976,,2013-09-14 18:00:00,
2013-09-14 14:43:00,65.0,37.0,-100.00,SW,225,4.0,-999.0,35,-99.99,,,-99.99,736.599976,,2013-09-14 18:43:00,
2013-09-14 14:52:00,65.0,37.0,-100.00,SW,225,4.0,-999.0,35,-99.99,,,-99.99,736.599976,,2013-09-14 18:52:00,
2013-09-14 17:00:00,69.0,37.0,-100.00,South,180,5.0,-999.0,30,-99.99,,,-99.99,494.160004,,2013-09-14 21:00:00,
2013-09-14 17:44:00,69.0,37.0,-100.00,South,180,5.0,-999.0,30,-99.99,,,-99.99,494.160004,,2013-09-14 21:44:00,
2013-09-14 17:54:00,69.0,37.0,-100.00,South,180,5.0,-999.0,30,-99.99,,,-99.99,494.160004,,2013-09-14 21:54:00,
2013-09-14 18:00:00,69.0,36.0,-100.00,SSW,202,4.0,-999.0,29,-99.99,,,-99.99,342.200012,,2013-09-14 22:00:00,
2013-09-14 18:42:00,69.0,36.0,-100.00,SSW,202,4.0,-999.0,29,-99.99,,,-99.99,342.200012,,2013-09-14 22:42:00,
2013-09-14 18:53:00,69.0,36.0,-100.00,SSW,202,4.0,-999.0,29,-99.99,,,-99.99,342.200012,,2013-09-14 22:53:00,
2013-09-14 19:00:00,69.0,37.0,-100.00,SSW,202,4.0,-999.0,30,-99.99,,,-99.99,208.800003,,2013-09-14 23:00:00,
2013-09-14 19:42:00,69.0,37.0,-100.00,SSW,202,4.0,-999.0,30,-99.99,,,-99.99,208.800003,,2013-09-14 23:42:00,
2013-09-14 19:53:00,69.0,37.0,-100.00,SSW,202,4.0,-999.0,30,-99.99,,,-99.99,208.800003,,2013-09-14 23:53:00,
2013-09-14 20:00:00,66.0,39.0,-100.00,SSW,202,3.0,-999.0,37,-99.99,,,-99.99,35.959999,,2013-09-15 00:00:00,
2013-09-14 20:43:00,66.0,39.0,-100.00,SSW,202,3.0,-999.0,37,-99.99,,,-99.99,35.959999,,2013-09-15 00:43:00,
2013-09-14 20:53:00,66.0,39.0,-100.00,SSW,202,3.0,-999.0,37,-99.99,,,-99.99,35.959999,,2013-09-15 00:53:00,
2013-09-14 21:00:00,60.0,41.0,-100.00,South,180,3.0,-999.0,49,-99.99,,,-99.99,0.000000,,2013-09-15 01:00:00,
2013-09-14 21:42:00,60.0,41.0,-100.00,South,180,3.0,-999.0,49,-99.99,,,-99.99,0.000000,,2013-09-15 01:42:00,
2013-09-14 21:52:00,60.0,41.0,-100.00,South,180,3.0,-999.0,49,-99.99,,,-99.99,0.000000,,2013-09-15 01:52:00,
2013-09-14 22:00:00,58.0,41.0,-100.00,South,180,4.0,-999.0,52,-99.99,,,-99.99,0.000000,,2013-09-15 02:00:00,
2013-09-14 22:42:00,58.0,41.0,-100.00,South,180,4.0,-999.0,52,-99.99,,,-99.99,0.000000,,2013-09-15 02:42:00,
2013-09-14 22:52:00,58.0,41.0,-100.00,South,180,4.0,-999.0,52,-99.99,,,-99.99,0.000000,,2013-09-15 02:52:00,